FW8246 Weather Reports


Display with metric or nautical units.
time (UTC)temp
F
wind
direction
speed
MPH
gust
MPH
rain 1hr
in
rain 24hr
in
rain mn
in
humidity
%
barometer
mb
20260507113053 69 0 0.0 3.0 0.00 0.04 0.04 67 1016.6
20260507111549 68 232 0.0 4.0 0.00 0.04 0.04 65 1016.5
20260507110103 68 269 1.0 6.0 0.00 0.04 0.04 69 1016.6
20260507104554 67 275 0.0 2.0 0.00 0.04 0.04 70 1016.6
20260507103052 66 0 0.0 3.0 0.00 0.04 0.04 73 1016.7
20260507101559 65 0 0.0 3.0 0.00 0.04 0.04 72 1017.1
20260507100053 66 0 0.0 4.0 0.00 0.04 0.04 74 1017.0
20260507094600 65 278 0.0 4.0 0.00 0.04 0.04 73 1017.0
20260507093050 64 0 0.0 2.0 0.00 0.04 0.04 75 1016.6
20260507091549 64 0 0.0 3.0 0.00 0.04 0.04 74 1016.7
20260507090050 63 0 0.0 3.0 0.00 0.04 0.04 76 1016.8
20260507084548 63 0 0.0 0.0 0.00 0.04 0.04 77 1017.1
20260507083049 62 0 0.0 2.0 0.00 0.04 0.04 78 1016.8
20260507081549 61 0 0.0 4.0 0.00 0.04 0.04 79 1016.9
20260507080054 60 0 0.0 2.0 0.00 0.04 0.04 80 1017.0
20260507074549 59 0 0.0 3.0 0.00 0.05 0.04 79 1017.2
20260507073116 58 0 0.0 2.0 0.00 0.05 0.04 79 1017.3
20260507071548 57 0 0.0 1.0 0.00 0.05 0.04 87 1017.2
20260507070047 58 0 0.0 4.0 0.00 0.05 0.04 86 1017.1
20260507064605 58 0 0.0 2.0 0.00 0.09 0.04 85 1016.8
20260507063110 57 0 0.0 2.0 0.00 0.09 0.04 82 1016.3
20260507061556 56 0 0.0 3.0 0.00 0.09 0.04 87 1016.5
20260507060052 54 0 0.0 0.0 0.00 0.09 0.04 91 1016.6
20260507054556 54 0 0.0 0.0 0.00 0.09 0.04 92 1016.7
20260507053055 53 0 0.0 0.0 0.00 0.09 0.04 93 1017.1
20260507051553 53 0 0.0 0.0 0.00 0.09 0.04 93 1016.8
20260507050058 53 0 0.0 0.0 0.00 0.09 0.04 93 1016.5
20260507044553 53 0 0.0 0.0 0.00 0.10 0.04 93 1016.6
20260507043052 52 0 0.0 0.0 0.00 0.10 0.04 93 1016.5
20260507041550 52 0 0.0 0.0 0.00 0.10 0.04 93 1016.4
20260507040105 52 0 0.0 0.0 0.00 0.10 0.04 92 1016.4
20260507034605 52 0 0.0 0.0 0.00 0.10 0.04 92 1016.3
20260507033104 52 0 0.0 0.0 0.00 0.10 0.04 92 1016.4
20260507031551 52 0 0.0 1.0 0.00 0.10 0.04 92 1016.3
20260507030048 52 0 0.0 0.0 0.00 0.10 0.04 92 1016.2
20260507024557 52 0 0.0 0.0 0.00 0.11 0.04 92 1016.3
20260507023051 52 0 0.0 0.0 0.00 0.11 0.04 91 1016.2
20260507021552 52 0 0.0 0.0 0.00 0.11 0.04 91 1016.2
20260507020050 52 0 0.0 2.0 0.00 0.11 0.04 91 1016.3
20260507014552 52 163 1.0 4.0 0.01 0.11 0.04 92 1016.3
20260507013103 52 80 1.0 5.0 0.01 0.11 0.04 92 1016.5
20260507011548 52 0 0.0 4.0 0.01 0.11 0.04 93 1016.4
20260507010051 52 0 0.0 2.0 0.01 0.11 0.04 93 1016.5
20260507004551 52 93 0.0 3.0 0.00 0.10 0.03 93 1016.6
20260507003053 52 0 0.0 0.0 0.00 0.10 0.03 93 1016.5
20260507001607 52 0 0.0 0.0 0.00 0.10 0.03 93 1016.6
20260507000057 52 0 0.0 0.0 0.01 0.10 0.03 93 1016.7
20260506234608 52 0 0.0 0.0 0.02 0.10 0.03 92 1016.8
20260506233056 52 0 0.0 0.0 0.02 0.10 0.03 92 1016.9
20260506231555 53 0 0.0 0.0 0.02 0.10 0.03 92 1017.1
20260506230052 53 0 0.0 0.0 0.02 0.09 0.02 91 1017.2
20260506224607 53 0 0.0 0.0 0.01 0.08 0.01 91 1017.4
20260506223054 53 0 0.0 0.0 0.01 0.08 0.01 91 1017.5
20260506221600 53 0 0.0 0.0 0.01 0.08 0.01 90 1017.5
20260506214551 53 0 0.0 0.0 0.00 0.07 0.07 88 1017.3
20260506213053 54 143 0.0 1.0 0.00 0.07 0.07 86 1017.2
20260506211554 55 0 0.0 5.0 0.00 0.07 0.07 83 1017.3
20260506210051 55 165 0.0 4.0 0.00 0.07 0.07 81 1017.5
20260506204548 55 37 0.0 4.0 0.00 0.07 0.07 82 1017.9
20260506203058 55 0 0.0 3.0 0.00 0.07 0.07 81 1017.8
20260506201545 56 0 0.0 4.0 0.00 0.07 0.07 81 1017.8
20260506200047 56 0 0.0 3.0 0.00 0.07 0.07 82 1017.8
20260506194552 54 0 0.0 0.0 0.00 0.07 0.07 86 1017.8
20260506193052 55 0 0.0 0.0 0.00 0.07 0.07 85 1017.6
20260506191548 55 0 0.0 0.0 0.00 0.07 0.07 85 1017.3
20260506190051 55 0 0.0 0.0 0.00 0.07 0.07 83 1017.2
20260506184550 55 0 0.0 0.0 0.00 0.07 0.07 85 1016.9
20260506183051 56 0 0.0 1.0 0.00 0.07 0.07 84 1016.7
20260506181618 56 0 0.0 0.0 0.00 0.07 0.07 83 1016.7
20260506180055 57 0 0.0 0.0 0.00 0.07 0.07 81 1016.6
20260506174600 57 0 0.0 0.0 0.00 0.07 0.07 81 1016.4
20260506173121 58 0 0.0 0.0 0.00 0.07 0.07 78 1016.7
20260506171553 58 0 0.0 1.0 0.00 0.07 0.07 77 1016.5
20260506170059 59 0 0.0 3.0 0.00 0.07 0.07 74 1016.3
20260506164548 60 166 0.0 4.0 0.00 0.07 0.07 72 1016.3
20260506163055 60 0 0.0 3.0 0.00 0.07 0.07 73 1016.4
20260506161553 61 161 0.0 4.0 0.00 0.07 0.07 71 1016.3
20260506160108 61 0 0.0 2.0 0.00 0.07 0.07 72 1016.5
20260506154549 62 0 0.0 2.0 0.00 0.07 0.07 70 1016.5
20260506153053 62 0 0.0 5.0 0.00 0.07 0.07 67 1016.5
20260506151555 63 0 0.0 3.0 0.00 0.07 0.07 68 1016.7
20260506150050 63 0 0.0 5.0 0.00 0.07 0.07 67 1016.6
20260506144553 63 0 0.0 6.0 0.00 0.07 0.07 65 1016.7
20260506143053 63 0 0.0 5.0 0.00 0.07 0.07 65 1016.6
20260506141554 64 0 0.0 1.0 0.00 0.07 0.07 69 1016.8
20260506140049 64 0 0.0 1.0 0.00 0.07 0.07 69 1016.5
20260506134555 64 0 0.0 4.0 0.00 0.07 0.07 68 1016.5
20260506133113 64 236 0.0 4.0 0.00 0.07 0.07 64 1016.5
20260506131600 65 0 0.0 6.0 0.00 0.07 0.07 64 1016.5
20260506130054 66 200 0.0 3.0 0.00 0.07 0.07 66 1016.6
20260506124558 66 217 0.0 4.0 0.00 0.07 0.07 64 1017.0
20260506123052 67 267 1.0 8.0 0.00 0.07 0.07 61 1016.6
20260506121550 66 212 0.0 4.0 0.00 0.07 0.07 57 1016.6
20260506120050 66 260 0.0 6.0 0.00 0.07 0.07 62 1016.8
20260506114553 65 288 0.0 5.0 0.00 0.07 0.07 66 1016.9